SCP
0 0 0 0 0 0 0 0 0 0 0 0 0 0 0 -0 0 0 0 0 0 0 0 0 0 0 0 0 0 0 0 0 0 0 0 0 0 0 0 0 0 0 0 0
0 0 0 0 0 0 0 0 0 0 0 0 0 0 0 0 0 0 0 0 0 0 0 0 0 0 0 0 0 0 0 0 0 0 0 0 0 0 0 0 0 0 0 0
0 0 0 0 0 0 0 0 0 0 0 0 0 0 0 0 0 0 0 0 0 0 0 0 0 0 0 0 0 0 0 0 0 0 0 0 0 0 0 0 0 0 0 0
0 0 0 0 0 0 0 0 0 0 0 0 0 0 0 -0 0 0 0 -0 0 0 0 0 0 0 0 0 0 0 0 0 0 0 0 0 0 0 0 0 0 0 0 0
0 0 0 0 0 0 0 0 0 0 0 0 0 0 0 -0 0 0 -0 -0 -0 0 0 0 0 0 0 0 0 0 0 0 0 0 0 0 0 0 0 0 0 0 0 0
0 0 0 0 0 0 0 0 0 0 0 0 0 0 0 0 0 0 0 -0 0 0 0 0 0 0 0 0 0 0 0 0 0 0 0 0 0 0 0 0 0 0 0 0
0 0 0 0 0 0 0 0 0 0 0 0 0 0 0 0 0 0 0 0 0 0 0 0 0 0 0 0 0 0 0 0 0 0 0 0 0 0 0 0 0 0 0 0
0 0 0 0 0 0 0 0 0 0 0 0 0 0 0 0 0 0 0 0 0 0 0 0 0 0 0 0 0 0 0 0 0 0 0 0 0 0 0 0 0 0 0 0
0 0 0 0 0 0 0 0 0 0 0 0 0 0 0 0 0 0 0 0 0 0 0 0 0 0 0 0 0 0 0 0 0 0 0 0 0 0 0 0 0 0 0 0
0 0 0 0 0 0 0 0 0 0 0 0 0 0 0 0 0 0 0 0 0 0 0 0 0 0 -0 0 0 0 0 0 0 0 0 0 0 0 0 0 0 0 0 0
0 0 0 0 0 0 0 0 0 0 0 0 0 0 0 0 0 0 0 0 0 0 0 0 0 0 0 0 0 0 0 0 0 0 0 0 0 0 0 0 0 0 0 0
0 0 0 0 0 0 0 0 0 0 0 0 0 0 0 0 0 0 0 0 0 0 0 0 0 0 0 0 0 0 0 0 0 0 0 0 0 0 0 0 0 0 0 0
0 0 0 0 0 0 0 0 0 0 0 0 0 0 0 0 0 0 0 0 0 0 0 0 0 0 0 0 0 0 0 0 0 0 0 0 0 0 0 0 0 0 0 0
0 0 0 0 0 0 0 0 0 0 0 0 0 0 0 0 0 0 0 0 0 0 0 0 0 0 0 0 0 0 0 0 0 0 0 0 0 0 0 0 0 0 0 0
0 0 0 0 0 0 0 0 0 0 0 0 0 0 0 0 0 0 0 0 0 0 0 0 0 0 0 0 0 0 0 0 0 0 0 0 0 0 0 0 0 0 0 0
0 0 0 0 0 0 0 0 0 0 0 0 0 0 0 0 0 0 0 0 0 0 0 0 0 0 0 0 0 0 0 0 0 0 0 0 0 0 0 0 0 0 0 0
0 0 0 0 0 0 0 0 0 0 0 0 0 0 0 0 0 0 0 0 0 0 0 0 0 0 0 0 0 0 0 0 0 0 0 0 0 0 0 0 0 0 0 0
0 0 0 0 0 0 0 0 0 0 0 0 0 0 0 0 0 0 0 0 0 0 0 0 0 0 0 0 0 0 0 0 0 0 0 0 0 0 0 0 0 0 0 0
0 0 0 0 0 0 0 0 0 0 0 0 0 0 0 0 0 0 0 0 0 0 0 0 0 0 0 0 0 0 0 0 0 0 0 0 0 0 0 0 0 0 0 0
0 0 0 0 0 0 0 0 0 0 0 0 0 0 0 0 0 0 0 0 0 0 0 0 0 0 0 0 0 0 0 0 0 0 0 0 0 0 0 0 0 0 0 0
0 0 0 0 0 0 0 0 0 0 0 0 0 0 0 0 0 0 0 0 0 0 0 0 0 0 0 0 0 0 0 0 0 0 0 0 0 0 0 0 0 0 0 0
0 0 0 0 0 0 0 0 0 0 0 0 0 0 0 0 0 0 0 0 0 0 0 0 0 0 0 0 0 0 0 0 0 0 0 0 0 0 0 0 0 0 0 0
0 0 0 0 0 0 0 0 0 0 0 0 0 0 0 0 0 0 0 0 0 0 0 0 0 0 0 0 0 0 0 0 0 0 0 0 0 0 0 0 0 0 0 0
0 0 0 0 0 0 0 0 0 0 0 0 0 0 0 0 0 0 0 0 0 0 0 0 0 0 0 0 0 0 0 0 0 0 0 0 0 0 0 0 0 0 0 0
0 0 0 0 0 0 0 0 0 0 0 0 0 0 0 0 0 0 0 0 0 0 0 0 0 0 0 0 0 0 0 0 0 0 0 0 0 0 0 0 0 0 0 0
0 0 0 0 0 0 0 0 0 0 0 0 0 0 0 0 0 0 0 0 0 0 0 0 0 0 0 0 0 0 0 0 0 0 0 0 0 0 0 0 0 0 0 0
0 0 0 0 0 0 0 0 0 0 0 0 0 0 0 0 0 0 0 0 0 0 0 0 0 0 0 0 0 0 0 0 0 0 0 0 0 0 0 0 0 0 0 0
Wind_Speed_500mb
6 10 8 9 11 11 10 7 8 3 19 11 13 21 39 35 30 34 35 38 37 38 40 43 49 51 48 47 47 51 55 59 61 62 68 71 72 74 76 75 75 73 74 74
4 7 11 11 20 17 15 11 21 14 41 24 39 15 16 24 26 26 30 31 33 34 36 39 41 45 50 54 55 56 59 63 67 69 70 72 72 71 71 75 77 77 77 73
4 7 7 15 21 26 15 12 18 21 34 9 7 5 14 19 13 26 31 31 34 36 38 40 44 50 54 58 65 64 63 63 67 68 66 64 66 68 67 64 63 64 65 65
6 5 6 12 4 7 25 18 20 14 3 3 10 20 17 14 22 32 38 40 37 38 39 42 45 44 51 56 60 62 63 63 61 63 64 63 63 65 68 69 68 65 62 58
10 8 12 17 12 15 16 15 13 11 7 3 19 25 8 17 31 35 40 42 41 42 46 47 48 50 55 53 64 62 62 61 61 63 64 61 60 60 62 64 62 59 57 56
5 11 17 12 4 11 10 9 18 15 11 2 11 9 8 31 42 40 41 38 43 48 50 50 51 54 58 57 57 64 65 64 62 60 61 63 63 60 56 57 60 58 56 52
8 7 16 20 17 8 10 14 28 18 8 3 7 17 48 51 50 46 42 45 47 46 49 52 56 54 56 58 57 56 57 58 60 59 59 57 59 61 56 52 53 50 48 46
7 12 23 18 11 15 8 25 16 7 15 23 28 39 44 51 45 39 43 46 49 53 56 56 56 60 61 55 55 55 56 55 58 60 58 56 54 54 52 47 44 39 38 37
17 14 13 15 10 17 9 12 7 8 17 27 36 43 39 41 51 56 51 50 52 54 57 55 56 57 58 56 56 56 57 60 58 58 58 54 50 46 42 39 35 31 28 33
7 13 15 24 7 3 19 4 27 27 37 33 36 40 45 52 57 56 57 59 60 57 55 56 53 53 55 58 62 62 63 60 58 54 48 45 42 36 32 29 25 19 21 23
6 12 5 11 8 14 34 43 42 53 54 46 41 45 48 52 51 56 59 58 58 60 61 61 60 57 56 57 59 61 58 55 49 45 40 37 35 31 25 23 21 19 16 15
10 11 4 28 43 49 45 47 48 52 56 50 41 39 39 46 52 57 59 61 62 62 63 64 62 58 55 55 54 58 55 47 43 41 37 34 25 22 10 7 5 3 4 7
13 37 29 35 36 48 56 55 53 51 49 45 36 37 44 53 59 61 63 62 62 60 56 54 55 55 50 53 53 54 51 43 38 31 24 18 16 18 13 13 16 14 11 9
26 29 33 48 41 43 46 47 46 45 47 49 51 50 50 53 54 54 57 56 55 55 56 52 53 54 52 50 49 48 41 36 29 21 16 15 14 8 7 11 11 13 13 15
52 51 47 48 48 47 44 43 44 45 47 46 45 47 47 51 52 54 55 54 55 59 57 55 55 53 53 50 45 38 32 27 22 18 18 17 12 12 10 10 9 11 11 8
37 45 44 38 35 38 39 41 45 50 54 58 59 58 58 57 58 59 57 54 56 59 57 54 51 46 44 41 36 30 27 25 21 21 22 21 17 15 14 11 5 4 6 9
38 40 42 42 41 44 48 52 56 58 60 62 63 64 63 61 63 58 55 52 54 55 52 48 42 38 34 30 27 26 27 28 26 26 24 23 22 20 16 13 10 7 7 11
45 46 47 51 51 51 51 48 49 53 55 57 57 57 56 55 57 54 51 48 46 45 42 38 33 30 28 27 26 25 27 30 31 29 27 26 22 17 15 15 14 12 9 8
48 44 42 41 45 50 52 53 53 51 48 49 48 47 49 49 47 44 42 39 37 34 30 29 28 27 25 24 23 23 25 25 26 28 27 24 21 19 18 16 14 12 10 8
38 37 38 40 45 48 47 45 47 43 39 43 41 42 40 38 36 34 35 34 32 29 27 24 23 22 21 20 24 24 26 26 26 24 22 21 19 18 17 15 13 10 8 7
33 32 33 33 36 40 43 41 39 37 36 35 34 33 32 28 26 29 29 27 24 24 23 22 19 18 18 20 22 22 23 22 22 20 19 17 14 13 13 12 11 10 11 13
24 23 24 25 27 29 32 34 33 30 28 26 25 23 21 20 20 21 22 22 19 18 17 15 14 14 14 17 18 19 20 20 19 16 12 12 13 12 11 11 13 16 19 21
16 16 18 18 20 20 20 21 20 19 17 15 14 12 12 14 15 14 15 16 15 14 12 13 14 15 16 16 17 17 17 16 13 12 13 12 12 13 14 17 21 24 28 31
11 11 13 13 13 12 11 10 10 9 9 8 8 8 9 11 14 17 17 16 15 14 13 13 16 16 15 15 14 13 10 8 10 13 14 16 19 22 25 28 31 34 36 38
13 11 9 8 7 6 6 5 4 4 4 5 7 8 9 10 12 13 13 13 13 12 11 13 14 15 15 15 14 11 11 14 18 20 24 27 30 32 34 36 38 39 38 37
12 11 9 9 9 8 7 5 2 2 2 2 3 5 5 6 8 10 10 10 11 12 11 12 13 14 16 16 16 17 20 25 28 32 34 35 36 36 37 37 35 32 29 27
13 10 9 8 9 8 6 5 3 3 4 4 3 4 5 6 8 9 10 12 13 15 16 18 18 19 19 21 24 28 32 34 36 36 36 35 34 32 31 29 28 28 30 32
Wind_Direction_500mb
105 134 119 179 221 220 205 178 194 355 293 288 301 284 302 321 337 340 336 334 334 328 320 315 310 308 308 308 308 299 291 287 288 288 289 287 283 280 278 277 276 273 273 270
36 185 176 220 227 239 239 214 256 257 269 290 285 341 6 345 0 14 4 355 348 339 331 327 321 317 312 310 307 301 294 290 288 287 287 285 283 282 279 276 275 274 272 273
256 346 111 301 224 201 206 203 220 241 249 339 43 62 330 336 22 6 357 344 340 338 337 335 334 327 320 312 308 308 302 298 295 292 289 287 285 284 283 281 279 276 273 271
155 27 219 243 332 255 220 234 217 247 134 186 282 306 300 196 1 350 344 342 336 330 328 324 320 319 321 321 314 310 309 307 305 301 297 294 289 286 284 284 282 278 272 267
145 189 298 286 239 175 170 249 210 200 132 115 341 338 311 168 347 331 327 326 328 326 326 323 319 315 313 313 317 313 309 308 307 305 303 302 301 296 289 284 279 275 273 267
118 146 211 237 322 137 97 283 187 174 157 191 3 354 252 305 318 313 315 319 315 315 317 319 321 319 313 310 313 316 311 308 307 306 304 304 302 300 295 288 282 276 270 268
169 200 279 242 236 4 103 238 159 161 174 243 205 259 301 308 307 313 315 315 316 316 316 319 319 317 317 317 310 306 307 308 307 305 305 302 299 299 296 293 287 282 274 270
154 200 258 182 121 173 191 143 159 198 294 293 297 300 299 305 313 318 320 317 316 317 320 324 323 320 317 315 310 306 307 306 306 306 304 302 299 296 293 293 289 285 283 275
181 202 231 195 159 114 159 152 222 291 317 309 298 294 291 296 305 309 313 317 317 316 316 319 320 321 320 320 314 310 310 307 306 305 303 300 297 293 293 291 286 286 284 282
101 227 220 163 260 82 174 246 318 315 325 305 291 290 289 297 300 299 304 308 309 309 309 310 311 313 315 315 313 310 307 305 303 301 301 298 289 287 288 287 281 275 273 270
254 276 232 234 209 320 319 314 307 305 303 296 289 282 284 291 294 296 299 303 304 304 304 304 304 306 307 311 311 310 306 306 302 298 297 290 283 273 270 266 270 258 239 241
220 176 133 293 294 303 310 307 307 310 302 294 281 275 280 290 293 293 293 295 294 294 295 297 297 298 298 300 305 305 303 301 300 295 290 283 273 265 211 217 191 232 168 184
242 278 280 278 286 294 295 295 293 290 286 282 275 281 286 288 289 286 288 292 295 297 299 302 304 305 299 297 298 300 300 297 290 284 274 250 234 212 182 141 141 137 118 109
235 265 276 282 280 281 281 281 277 274 277 281 284 283 283 285 283 284 287 288 289 290 291 291 293 300 298 296 295 293 289 283 274 264 243 216 216 213 180 165 145 127 118 119
254 262 264 267 269 271 272 273 273 273 273 273 275 280 283 284 284 283 285 286 287 288 290 289 289 293 294 293 291 284 272 264 250 229 208 193 184 190 176 150 108 99 104 108
245 249 253 256 257 260 266 269 273 277 281 282 284 285 286 284 282 283 285 286 286 289 289 288 290 292 289 288 283 265 248 239 222 206 194 186 177 170 167 162 161 157 141 152
229 236 246 255 265 270 274 279 282 285 286 286 286 285 284 285 284 286 285 281 281 282 283 286 287 285 282 273 258 231 223 219 207 197 188 187 189 183 179 180 183 180 156 140
245 253 263 270 277 282 283 284 285 287 289 290 290 289 289 287 287 287 286 284 282 280 281 282 281 276 266 248 228 216 211 208 204 200 196 194 191 186 184 184 185 184 173 171
251 256 260 266 275 281 287 291 290 289 290 288 289 289 289 288 286 286 285 281 276 274 273 275 270 262 249 238 226 215 208 204 205 204 197 191 189 187 191 191 188 188 184 182
238 245 256 269 277 282 286 288 290 292 292 289 290 290 288 283 282 283 279 276 272 267 263 260 251 245 239 226 216 208 207 204 203 197 189 186 183 185 184 185 186 194 204 223
231 244 253 264 273 282 289 292 292 293 294 294 292 288 283 280 276 273 269 267 264 258 248 243 237 231 222 211 207 202 198 190 187 184 175 169 166 170 183 193 207 228 248 263
232 247 259 270 279 284 288 291 294 296 296 296 294 287 278 273 268 261 254 249 252 241 230 227 226 220 204 193 188 182 176 171 168 164 158 173 189 198 215 237 253 264 271 278
230 249 267 280 283 285 286 289 295 298 299 300 297 284 262 255 248 235 237 235 231 223 222 218 203 189 182 180 176 171 168 161 157 176 200 213 231 247 260 270 275 278 280 282
239 262 273 282 283 280 283 296 295 298 294 291 278 264 249 237 230 229 237 232 218 214 215 207 193 187 186 185 183 181 177 188 220 234 248 258 264 270 273 274 276 280 284 287
225 233 238 250 260 270 265 265 267 276 278 285 269 251 239 231 234 233 222 222 217 211 213 208 208 210 210 210 209 215 233 251 261 269 274 275 275 276 278 281 284 285 285 285
208 204 212 221 241 237 237 236 230 257 239 232 237 222 219 226 216 209 215 216 219 226 233 239 240 244 248 252 258 265 270 272 272 272 274 277 280 282 282 281 281 281 281 283
196 193 196 210 220 225 223 224 222 236 228 204 207 195 191 198 212 224 232 237 243 247 250 253 255 260 269 276 277 274 273 275 277 280 282 284 284 283 281 280 280 281 282 282
Wind_Speed_850mb
6 10 8 9 11 11 10 7 8 3 19 11 13 21 39 35 30 34 35 38 37 38 40 43 49 51 48 47 47 51 55 59 61 62 68 71 72 74 76 75 75 73 74 74
4 7 11 11 20 17 15 11 21 14 41 24 39 15 16 24 26 26 30 31 33 34 36 39 41 45 50 54 55 56 59 63 67 69 70 72 72 71 71 75 77 77 77 73
4 7 7 15 21 26 15 12 18 21 34 9 7 5 14 19 13 26 31 31 34 36 38 40 44 50 54 58 65 64 63 63 67 68 66 64 66 68 67 64 63 64 65 65
6 5 6 12 4 7 25 18 20 14 3 3 10 20 17 14 22 32 38 40 37 38 39 42 45 44 51 56 60 62 63 63 61 63 64 63 63 65 68 69 68 65 62 58
10 8 12 17 12 15 16 15 13 11 7 3 19 25 8 17 31 35 40 42 41 42 46 47 48 50 55 53 64 62 62 61 61 63 64 61 60 60 62 64 62 59 57 56
5 11 17 12 4 11 10 9 18 15 11 2 11 9 8 31 42 40 41 38 43 48 50 50 51 54 58 57 57 64 65 64 62 60 61 63 63 60 56 57 60 58 56 52
8 7 16 20 17 8 10 14 28 18 8 3 7 17 48 51 50 46 42 45 47 46 49 52 56 54 56 58 57 56 57 58 60 59 59 57 59 61 56 52 53 50 48 46
7 12 23 18 11 15 8 25 16 7 15 23 28 39 44 51 45 39 43 46 49 53 56 56 56 60 61 55 55 55 56 55 58 60 58 56 54 54 52 47 44 39 38 37
17 14 13 15 10 17 9 12 7 8 17 27 36 43 39 41 51 56 51 50 52 54 57 55 56 57 58 56 56 56 57 60 58 58 58 54 50 46 42 39 35 31 28 33
7 13 15 24 7 3 19 4 27 27 37 33 36 40 45 52 57 56 57 59 60 57 55 56 53 53 55 58 62 62 63 60 58 54 48 45 42 36 32 29 25 19 21 23
6 12 5 11 8 14 34 43 42 53 54 46 41 45 48 52 51 56 59 58 58 60 61 61 60 57 56 57 59 61 58 55 49 45 40 37 35 31 25 23 21 19 16 15
10 11 4 28 43 49 45 47 48 52 56 50 41 39 39 46 52 57 59 61 62 62 63 64 62 58 55 55 54 58 55 47 43 41 37 34 25 22 10 7 5 3 4 7
13 37 29 35 36 48 56 55 53 51 49 45 36 37 44 53 59 61 63 62 62 60 56 54 55 55 50 53 53 54 51 43 38 31 24 18 16 18 13 13 16 14 11 9
26 29 33 48 41 43 46 47 46 45 47 49 51 50 50 53 54 54 57 56 55 55 56 52 53 54 52 50 49 48 41 36 29 21 16 15 14 8 7 11 11 13 13 15
52 51 47 48 48 47 44 43 44 45 47 46 45 47 47 51 52 54 55 54 55 59 57 55 55 53 53 50 45 38 32 27 22 18 18 17 12 12 10 10 9 11 11 8
37 45 44 38 35 38 39 41 45 50 54 58 59 58 58 57 58 59 57 54 56 59 57 54 51 46 44 41 36 30 27 25 21 21 22 21 17 15 14 11 5 4 6 9
38 40 42 42 41 44 48 52 56 58 60 62 63 64 63 61 63 58 55 52 54 55 52 48 42 38 34 30 27 26 27 28 26 26 24 23 22 20 16 13 10 7 7 11
45 46 47 51 51 51 51 48 49 53 55 57 57 57 56 55 57 54 51 48 46 45 42 38 33 30 28 27 26 25 27 30 31 29 27 26 22 17 15 15 14 12 9 8
48 44 42 41 45 50 52 53 53 51 48 49 48 47 49 49 47 44 42 39 37 34 30 29 28 27 25 24 23 23 25 25 26 28 27 24 21 19 18 16 14 12 10 8
38 37 38 40 45 48 47 45 47 43 39 43 41 42 40 38 36 34 35 34 32 29 27 24 23 22 21 20 24 24 26 26 26 24 22 21 19 18 17 15 13 10 8 7
33 32 33 33 36 40 43 41 39 37 36 35 34 33 32 28 26 29 29 27 24 24 23 22 19 18 18 20 22 22 23 22 22 20 19 17 14 13 13 12 11 10 11 13
24 23 24 25 27 29 32 34 33 30 28 26 25 23 21 20 20 21 22 22 19 18 17 15 14 14 14 17 18 19 20 20 19 16 12 12 13 12 11 11 13 16 19 21
16 16 18 18 20 20 20 21 20 19 17 15 14 12 12 14 15 14 15 16 15 14 12 13 14 15 16 16 17 17 17 16 13 12 13 12 12 13 14 17 21 24 28 31
11 11 13 13 13 12 11 10 10 9 9 8 8 8 9 11 14 17 17 16 15 14 13 13 16 16 15 15 14 13 10 8 10 13 14 16 19 22 25 28 31 34 36 38
13 11 9 8 7 6 6 5 4 4 4 5 7 8 9 10 12 13 13 13 13 12 11 13 14 15 15 15 14 11 11 14 18 20 24 27 30 32 34 36 38 39 38 37
12 11 9 9 9 8 7 5 2 2 2 2 3 5 5 6 8 10 10 10 11 12 11 12 13 14 16 16 16 17 20 25 28 32 34 35 36 36 37 37 35 32 29 27
13 10 9 8 9 8 6 5 3 3 4 4 3 4 5 6 8 9 10 12 13 15 16 18 18 19 19 21 24 28 32 34 36 36 36 35 34 32 31 29 28 28 30 32
Wind_Direction_850mb
105 134 119 179 221 220 205 178 194 355 293 288 301 284 302 321 337 340 336 334 334 328 320 315 310 308 308 308 308 299 291 287 288 288 289 287 283 280 278 277 276 273 273 270
36 185 176 220 227 239 239 214 256 257 269 290 285 341 6 345 0 14 4 355 348 339 331 327 321 317 312 310 307 301 294 290 288 287 287 285 283 282 279 276 275 274 272 273
256 346 111 301 224 201 206 203 220 241 249 339 43 62 330 336 22 6 357 344 340 338 337 335 334 327 320 312 308 308 302 298 295 292 289 287 285 284 283 281 279 276 273 271
155 27 219 243 332 255 220 234 217 247 134 186 282 306 300 196 1 350 344 342 336 330 328 324 320 319 321 321 314 310 309 307 305 301 297 294 289 286 284 284 282 278 272 267
145 189 298 286 239 175 170 249 210 200 132 115 341 338 311 168 347 331 327 326 328 326 326 323 319 315 313 313 317 313 309 308 307 305 303 302 301 296 289 284 279 275 273 267
118 146 211 237 322 137 97 283 187 174 157 191 3 354 252 305 318 313 315 319 315 315 317 319 321 319 313 310 313 316 311 308 307 306 304 304 302 300 295 288 282 276 270 268
169 200 279 242 236 4 103 238 159 161 174 243 205 259 301 308 307 313 315 315 316 316 316 319 319 317 317 317 310 306 307 308 307 305 305 302 299 299 296 293 287 282 274 270
154 200 258 182 121 173 191 143 159 198 294 293 297 300 299 305 313 318 320 317 316 317 320 324 323 320 317 315 310 306 307 306 306 306 304 302 299 296 293 293 289 285 283 275
181 202 231 195 159 114 159 152 222 291 317 309 298 294 291 296 305 309 313 317 317 316 316 319 320 321 320 320 314 310 310 307 306 305 303 300 297 293 293 291 286 286 284 282
101 227 220 163 260 82 174 246 318 315 325 305 291 290 289 297 300 299 304 308 309 309 309 310 311 313 315 315 313 310 307 305 303 301 301 298 289 287 288 287 281 275 273 270
254 276 232 234 209 320 319 314 307 305 303 296 289 282 284 291 294 296 299 303 304 304 304 304 304 306 307 311 311 310 306 306 302 298 297 290 283 273 270 266 270 258 239 241
220 176 133 293 294 303 310 307 307 310 302 294 281 275 280 290 293 293 293 295 294 294 295 297 297 298 298 300 305 305 303 301 300 295 290 283 273 265 211 217 191 232 168 184
242 278 280 278 286 294 295 295 293 290 286 282 275 281 286 288 289 286 288 292 295 297 299 302 304 305 299 297 298 300 300 297 290 284 274 250 234 212 182 141 141 137 118 109
235 265 276 282 280 281 281 281 277 274 277 281 284 283 283 285 283 284 287 288 289 290 291 291 293 300 298 296 295 293 289 283 274 264 243 216 216 213 180 165 145 127 118 119
254 262 264 267 269 271 272 273 273 273 273 273 275 280 283 284 284 283 285 286 287 288 290 289 289 293 294 293 291 284 272 264 250 229 208 193 184 190 176 150 108 99 104 108
245 249 253 256 257 260 266 269 273 277 281 282 284 285 286 284 282 283 285 286 286 289 289 288 290 292 289 288 283 265 248 239 222 206 194 186 177 170 167 162 161 157 141 152
229 236 246 255 265 270 274 279 282 285 286 286 286 285 284 285 284 286 285 281 281 282 283 286 287 285 282 273 258 231 223 219 207 197 188 187 189 183 179 180 183 180 156 140
245 253 263 270 277 282 283 284 285 287 289 290 290 289 289 287 287 287 286 284 282 280 281 282 281 276 266 248 228 216 211 208 204 200 196 194 191 186 184 184 185 184 173 171
251 256 260 266 275 281 287 291 290 289 290 288 289 289 289 288 286 286 285 281 276 274 273 275 270 262 249 238 226 215 208 204 205 204 197 191 189 187 191 191 188 188 184 182
238 245 256 269 277 282 286 288 290 292 292 289 290 290 288 283 282 283 279 276 272 267 263 260 251 245 239 226 216 208 207 204 203 197 189 186 183 185 184 185 186 194 204 223
231 244 253 264 273 282 289 292 292 293 294 294 292 288 283 280 276 273 269 267 264 258 248 243 237 231 222 211 207 202 198 190 187 184 175 169 166 170 183 193 207 228 248 263
232 247 259 270 279 284 288 291 294 296 296 296 294 287 278 273 268 261 254 249 252 241 230 227 226 220 204 193 188 182 176 171 168 164 158 173 189 198 215 237 253 264 271 278
230 249 267 280 283 285 286 289 295 298 299 300 297 284 262 255 248 235 237 235 231 223 222 218 203 189 182 180 176 171 168 161 157 176 200 213 231 247 260 270 275 278 280 282
239 262 273 282 283 280 283 296 295 298 294 291 278 264 249 237 230 229 237 232 218 214 215 207 193 187 186 185 183 181 177 188 220 234 248 258 264 270 273 274 276 280 284 287
225 233 238 250 260 270 265 265 267 276 278 285 269 251 239 231 234 233 222 222 217 211 213 208 208 210 210 210 209 215 233 251 261 269 274 275 275 276 278 281 284 285 285 285
208 204 212 221 241 237 237 236 230 257 239 232 237 222 219 226 216 209 215 216 219 226 233 239 240 244 248 252 258 265 270 272 272 272 274 277 280 282 282 281 281 281 281 283
196 193 196 210 220 225 223 224 222 236 228 204 207 195 191 198 212 224 232 237 243 247 250 253 255 260 269 276 277 274 273 275 277 280 282 284 284 283 281 280 280 281 282 282